Wind_Speed
19 18 17 17 18 19 21 22 24 25 26 27 28 29 29 30 30 30 30 30 31 31 32 32 33 34 34 35 35 35 35 35 34 34 33 33 33 32 31 31 30 30 32
14 14 15 17 19 20 21 23 24 26 27 28 29 30 30 31 31 30 30 30 30 30 31 31 32 33 33 34 34 34 35 35 35 35 34 33 33 33 33 32 31 31 32
10 12 13 16 17 19 21 23 25 26 27 28 29 30 31 31 31 31 30 30 29 29 30 30 31 32 32 33 33 34 34 34 35 35 34 34 34 34 33 32 31 31 33
7 10 12 15 17 19 21 23 24 26 27 28 29 29 30 30 31 31 30 30 30 29 29 29 30 30 31 32 32 33 33 33 34 34 34 34 34 34 34 34 33 32 33
7 10 13 15 17 19 20 21 22 24 25 25 26 27 28 28 28 28 29 29 29 29 29 29 30 30 31 32 32 32 32 32 33 34 34 34 34 34 34 34 35 33 34
9 11 13 15 16 17 18 20 21 22 23 23 24 25 26 26 26 27 28 28 29 29 30 31 32 32 33 33 34 34 34 34 34 34 34 34 34 34 34 34 35 35 34
9 11 12 14 15 16 18 19 21 22 23 24 25 25 25 26 26 27 28 29 30 31 32 33 34 34 35 36 36 36 36 36 35 35 35 35 35 34 34 33 34 35 35
10 11 12 13 15 16 18 20 22 23 25 25 26 26 26 26 27 27 28 30 31 32 34 35 36 36 37 37 37 38 38 38 37 37 37 37 36 36 35 34 34 35 36
10 12 13 14 16 18 20 22 23 24 25 26 27 27 28 28 28 29 30 31 33 34 35 37 37 38 38 38 38 38 39 38 39 39 39 39 39 38 37 36 36 35 36
11 12 14 17 19 21 23 24 25 26 27 27 28 29 30 31 31 32 33 34 35 36 37 37 38 39 39 39 39 39 39 39 39 39 40 40 41 41 40 39 38 38 38
13 15 18 20 22 24 25 26 27 28 28 30 31 31 33 34 34 35 36 37 37 38 38 38 38 39 39 38 38 38 38 38 38 38 39 40 41 42 42 42 41 40 40
16 18 21 23 24 26 27 28 29 30 31 32 33 34 35 36 38 38 39 39 40 40 40 39 39 38 38 37 37 37 37 37 37 38 38 39 41 42 43 43 43 43 43
19 21 22 24 26 27 28 30 31 32 33 35 36 37 38 39 40 42 42 42 42 42 42 41 40 39 37 37 36 36 36 36 36 37 38 39 41 42 44 45 45 45 45
21 22 24 25 27 29 30 31 32 34 35 37 38 39 40 41 43 44 44 45 44 44 43 42 41 39 37 36 36 35 35 36 36 37 37 39 40 42 44 45 46 47 48
22 23 25 27 29 30 32 33 35 36 37 38 39 40 41 43 44 45 46 46 46 45 44 43 41 39 38 37 37 36 35 35 36 37 38 39 40 42 45 46 47 49 50
23 25 26 28 30 32 34 36 37 38 39 40 41 41 43 44 45 46 47 47 46 46 45 43 41 40 39 38 37 36 35 35 35 36 37 39 40 42 44 46 49 50 51
25 26 28 30 32 34 36 37 39 39 40 41 41 42 44 45 46 47 47 47 47 46 45 43 41 40 39 38 37 36 34 35 35 36 37 38 39 41 43 45 48 50 52
26 28 30 32 34 36 38 39 40 40 41 42 43 44 45 46 47 48 48 47 46 46 44 42 41 40 39 38 37 36 35 35 35 36 37 38 39 40 41 44 47 50 52
28 29 31 33 36 38 39 40 40 41 42 43 44 45 46 47 48 48 48 47 46 45 44 42 41 40 39 38 37 36 35 34 34 35 36 37 38 40 41 43 45 48 52
30 31 33 35 37 38 39 40 40 41 43 44 45 46 47 48 49 48 47 46 45 44 43 42 40 39 39 38 37 36 34 33 33 33 34 35 36 38 40 41 44 47 50
33 34 36 37 39 39 40 41 41 42 44 45 46 48 49 50 50 48 47 45 44 43 42 41 40 39 38 37 35 34 33 32 32 32 32 32 33 35 37 39 42 46 50
35 37 39 39 40 41 41 42 43 44 46 47 48 50 51 51 49 47 45 44 43 42 41 40 38 38 37 36 34 33 32 31 29 29 29 29 29 31 33 35 39 44 49
38 39 40 41 41 42 43 44 45 47 48 50 51 52 51 51 49 46 44 43 42 41 40 38 37 36 36 35 34 32 31 28 27 26 26 25 25 26 28 31 35 39 45
39 41 41 42 43 43 44 46 47 49 51 52 52 52 51 50 48 45 43 42 41 39 38 37 36 35 35 34 33 31 28 26 25 23 21 20 20 21 23 25 29 34 40
39 41 42 42 44 45 46 48 50 52 53 54 54 53 51 49 47 44 42 41 40 38 37 36 35 34 33 32 31 29 27 24 22 20 19 17 17 17 17 18 22 27 35
40 41 42 43 45 47 49 51 53 55 56 55 54 52 50 48 45 42 41 40 38 37 36 35 34 33 33 31 30 28 26 22 20 19 17 15 14 14 13 13 15 20 27
Wind_Direction
282 289 293 298 304 308 311 313 313 313 313 312 311 310 309 307 305 303 301 299 296 294 292 290 288 287 285 283 280 278 276 274 271 268 266 264 262 260 257 256 255 249 244
284 291 296 302 309 313 316 317 317 316 316 314 313 311 310 308 306 304 302 300 298 296 294 292 290 287 285 283 281 279 277 275 272 269 266 264 262 259 257 253 251 247 242
291 302 306 309 313 316 317 317 316 315 314 312 310 309 308 307 306 304 302 301 299 297 295 292 291 289 287 285 283 280 278 275 272 270 266 263 260 258 257 252 248 245 241
313 316 316 317 317 317 316 315 313 312 310 308 307 307 306 305 305 304 303 302 300 298 297 295 293 291 289 287 285 282 279 276 273 270 267 263 260 257 255 253 248 243 240
326 321 318 316 315 314 313 312 311 310 310 309 309 310 309 308 308 306 305 304 303 302 300 299 297 295 292 289 286 283 280 276 273 270 267 263 260 257 254 251 248 244 240
320 317 313 312 312 312 312 313 315 316 318 318 318 318 318 317 315 313 312 310 308 307 305 302 300 297 294 291 287 283 279 276 272 269 266 263 259 256 253 249 244 243 241
313 313 313 314 315 318 322 325 327 329 329 329 328 327 326 324 322 321 318 316 314 312 309 306 303 299 295 291 287 283 278 275 271 268 264 261 258 255 252 248 243 240 238
316 317 320 323 328 333 335 336 336 336 336 336 335 333 332 330 327 325 323 320 317 315 312 309 305 301 297 292 288 283 278 274 270 265 262 258 255 253 251 248 244 240 237
322 326 330 335 340 342 343 342 341 340 340 339 338 337 335 333 330 328 326 323 320 317 314 310 306 302 298 293 288 283 278 274 269 264 260 256 253 250 248 246 243 240 237
330 337 343 346 348 348 346 345 344 342 341 341 340 339 337 335 333 330 328 326 323 320 317 312 307 303 299 294 289 284 279 274 269 264 259 255 252 248 246 244 242 240 237
340 346 350 351 350 349 347 345 343 341 340 339 339 338 336 335 333 332 330 327 325 322 319 315 310 305 301 296 291 286 281 276 271 265 259 255 251 248 245 243 241 239 237
342 346 349 350 348 346 344 342 341 339 338 337 337 337 336 335 334 332 331 329 326 324 320 317 312 307 302 298 293 288 283 277 272 266 261 255 251 248 245 242 240 239 236
342 344 346 346 344 342 340 339 338 337 336 335 335 335 335 334 333 332 330 329 327 325 322 319 315 309 304 299 295 290 285 279 273 267 262 256 252 249 245 243 241 238 236
338 339 340 340 339 338 337 336 336 335 334 334 334 334 333 332 331 330 329 328 327 325 323 320 316 312 307 302 297 293 287 281 275 270 264 259 254 250 246 244 241 239 236
332 334 334 335 335 335 335 334 334 333 333 333 332 332 331 331 330 329 328 327 326 324 323 320 316 312 308 304 299 295 290 284 279 273 267 262 257 252 248 245 242 239 235
328 330 332 332 333 332 332 332 332 332 332 331 331 330 330 329 329 328 327 326 325 324 323 320 317 313 310 306 301 297 292 287 282 276 270 265 259 254 250 246 242 239 235
325 328 329 330 330 330 330 330 330 330 330 330 330 330 329 328 327 327 326 325 324 323 322 320 317 314 311 308 304 300 295 290 284 279 273 268 262 256 251 247 243 239 234
323 326 327 328 328 328 328 328 328 328 329 329 329 329 328 327 326 326 325 324 324 323 322 320 318 316 313 310 307 303 299 294 287 281 275 270 266 260 253 248 243 239 235
322 324 325 325 326 326 326 326 327 327 328 329 329 328 328 327 325 324 324 323 323 323 322 321 319 317 315 313 309 305 302 298 292 286 279 272 266 261 254 249 244 239 235
320 321 322 323 323 324 324 325 326 327 328 329 329 328 327 326 325 324 323 323 323 323 323 321 320 319 318 315 311 307 304 300 296 291 285 276 267 261 256 251 245 239 235
317 318 320 321 322 322 323 324 325 326 327 328 328 327 326 325 324 323 322 322 323 324 323 322 321 320 320 318 313 310 306 303 299 294 288 280 270 262 257 252 246 239 235
314 316 318 319 321 322 323 325 325 326 326 327 326 325 325 324 324 323 322 322 323 324 324 324 323 322 322 320 317 314 311 308 303 298 292 283 274 266 261 254 247 239 234
312 314 316 318 320 322 323 325 326 327 327 326 326 325 324 323 324 323 322 323 324 325 325 325 324 324 323 322 319 316 314 311 307 304 299 290 280 271 264 256 248 241 233
311 313 315 317 319 321 323 325 326 326 326 326 326 325 324 324 324 323 323 323 324 325 326 326 325 325 324 324 322 319 316 313 312 309 305 298 288 280 271 261 249 239 232
309 311 314 316 318 320 322 324 324 325 325 325 325 325 325 324 324 323 323 323 324 324 326 327 326 326 325 325 324 322 319 315 313 311 308 304 298 289 277 263 248 238 229
307 309 311 313 317 319 320 321 322 323 324 324 325 325 325 325 324 324 323 324 324 325 327 328 328 327 327 326 325 324 322 317 313 309 308 306 305 297 282 268 249 234 224
Height
5853 5853 5852 5851 5849 5848 5846 5844 5842 5840 5838 5836 5834 5832 5829 5827 5825 5823 5820 5818 5817 5815 5813 5811 5809 5808 5807 5805 5805 5804 5804 5804 5804 5806 5807 5808 5809 5810 5811 5813 5815 5817 5820
5851 5850 5849 5848 5846 5844 5842 5840 5838 5836 5833 5831 5828 5826 5823 5821 5818 5816 5813 5811 5809 5807 5805 5803 5801 5800 5798 5797 5796 5795 5795 5795 5795 5796 5797 5799 5800 5801 5802 5803 5806 5808 5811
5848 5848 5847 5845 5844 5841 5839 5837 5834 5832 5829 5826 5823 5820 5817 5814 5812 5809 5806 5804 5802 5800 5798 5796 5794 5792 5790 5789 5787 5786 5786 5786 5785 5786 5787 5788 5790 5792 5793 5794 5797 5799 5802
5847 5846 5845 5844 5842 5839 5837 5834 5831 5829 5825 5822 5819 5815 5812 5808 5805 5802 5799 5797 5795 5793 5791 5788 5786 5784 5782 5780 5779 5778 5777 5777 5776 5776 5777 5778 5780 5782 5784 5786 5788 5790 5794
5846 5845 5844 5842 5840 5837 5834 5832 5829 5825 5821 5817 5813 5809 5806 5802 5799 5795 5792 5790 5787 5785 5783 5781 5778 5776 5774 5772 5770 5769 5768 5768 5767 5767 5767 5769 5770 5771 5774 5776 5778 5781 5785
5846 5844 5843 5841 5838 5835 5832 5828 5824 5820 5816 5812 5808 5804 5800 5796 5793 5789 5786 5783 5780 5777 5775 5772 5770 5767 5765 5763 5761 5760 5759 5758 5758 5758 5758 5759 5760 5762 5764 5766 5768 5772 5776
5845 5844 5841 5838 5835 5831 5828 5824 5820 5815 5811 5807 5802 5798 5794 5791 5787 5783 5780 5776 5773 5769 5766 5764 5761 5758 5755 5753 5751 5749 5748 5748 5748 5748 5748 5749 5750 5752 5754 5757 5759 5763 5767
5843 5841 5838 5835 5831 5827 5823 5819 5815 5811 5806 5802 5798 5793 5789 5785 5782 5778 5774 5770 5766 5762 5758 5754 5751 5748 5745 5742 5740 5738 5737 5737 5737 5737 5738 5739 5740 5742 5745 5748 5750 5754 5758
5841 5838 5835 5831 5827 5823 5819 5815 5811 5806 5802 5798 5793 5789 5785 5781 5776 5772 5768 5764 5759 5755 5750 5746 5741 5737 5734 5731 5729 5727 5725 5725 5725 5725 5726 5728 5729 5732 5735 5738 5741 5745 5748
5837 5834 5830 5826 5822 5818 5814 5810 5806 5802 5797 5793 5789 5784 5780 5775 5771 5766 5762 5757 5752 5747 5741 5736 5731 5727 5723 5720 5717 5715 5714 5713 5713 5713 5714 5716 5718 5720 5724 5727 5730 5734 5739
5833 5830 5825 5821 5817 5813 5809 5805 5801 5797 5793 5789 5784 5779 5774 5769 5764 5759 5754 5749 5743 5738 5732 5727 5721 5716 5712 5708 5705 5703 5701 5701 5700 5701 5702 5704 5705 5708 5712 5715 5720 5724 5728
5828 5824 5820 5816 5812 5809 5805 5801 5797 5793 5788 5784 5779 5773 5768 5763 5757 5752 5746 5741 5735 5729 5723 5717 5711 5706 5701 5697 5694 5691 5689 5688 5688 5688 5689 5691 5693 5696 5699 5703 5707 5712 5717
5823 5819 5816 5812 5808 5805 5801 5797 5792 5788 5783 5778 5773 5767 5761 5756 5750 5744 5738 5732 5726 5719 5713 5707 5701 5695 5691 5686 5683 5680 5677 5676 5675 5675 5676 5678 5680 5683 5686 5690 5694 5699 5704
5819 5815 5812 5808 5804 5800 5796 5792 5787 5782 5777 5772 5766 5760 5754 5748 5742 5736 5729 5723 5716 5710 5703 5696 5690 5685 5680 5676 5672 5669 5666 5664 5663 5663 5663 5664 5666 5669 5672 5676 5681 5686 5691
5815 5811 5808 5804 5800 5796 5791 5787 5782 5777 5771 5765 5759 5753 5747 5741 5734 5727 5721 5714 5707 5700 5693 5686 5680 5674 5669 5665 5660 5657 5654 5652 5650 5649 5649 5650 5652 5655 5658 5661 5666 5671 5677
5810 5807 5803 5799 5794 5790 5786 5781 5776 5770 5764 5758 5752 5746 5739 5733 5726 5719 5712 5705 5697 5690 5683 5676 5670 5664 5658 5653 5649 5645 5642 5639 5637 5636 5635 5636 5637 5640 5642 5646 5650 5656 5662
5806 5802 5798 5793 5789 5785 5780 5775 5769 5763 5758 5752 5745 5739 5732 5725 5717 5710 5703 5695 5688 5680 5672 5665 5659 5653 5647 5642 5637 5633 5630 5627 5624 5622 5621 5621 5622 5624 5627 5630 5634 5640 5646
5800 5797 5792 5788 5783 5779 5774 5768 5763 5757 5751 5744 5738 5731 5723 5716 5708 5701 5693 5685 5678 5670 5662 5655 5648 5642 5636 5630 5626 5621 5617 5614 5611 5609 5607 5607 5607 5608 5611 5614 5619 5624 5631
5795 5791 5787 5782 5778 5773 5768 5762 5756 5750 5744 5737 5730 5722 5715 5707 5699 5691 5683 5676 5668 5660 5652 5645 5638 5632 5625 5619 5614 5609 5605 5601 5598 5595 5593 5592 5592 5592 5594 5599 5603 5608 5614
5789 5785 5781 5777 5772 5767 5761 5755 5749 5743 5736 5729 5721 5714 5706 5698 5690 5682 5674 5666 5658 5650 5642 5635 5628 5621 5615 5609 5603 5598 5593 5589 5585 5582 5579 5577 5576 5577 5578 5582 5587 5592 5598
5782 5779 5774 5770 5765 5759 5754 5748 5741 5735 5728 5720 5713 5705 5697 5689 5681 5673 5664 5657 5649 5641 5633 5626 5618 5612 5605 5599 5593 5587 5582 5578 5574 5570 5566 5563 5562 5562 5563 5566 5570 5575 5579
5776 5771 5767 5762 5757 5752 5746 5740 5733 5726 5719 5712 5704 5696 5688 5680 5671 5663 5655 5647 5640 5632 5624 5616 5609 5602 5596 5590 5583 5577 5572 5567 5563 5558 5554 5551 5550 5549 5550 5551 5554 5557 5562
5768 5764 5759 5754 5749 5743 5737 5731 5724 5717 5710 5702 5694 5686 5678 5669 5661 5654 5646 5638 5630 5623 5615 5608 5601 5594 5587 5581 5574 5568 5563 5558 5553 5549 5545 5541 5539 5538 5537 5538 5539 5542 5547
5760 5756 5751 5746 5740 5734 5728 5722 5715 5708 5701 5693 5685 5676 5668 5659 5651 5644 5637 5629 5622 5615 5607 5600 5593 5586 5579 5573 5567 5560 5555 5550 5545 5541 5537 5533 5531 5528 5527 5526 5527 5529 5534
5752 5747 5742 5737 5731 5725 5719 5713 5706 5699 5692 5683 5675 5667 5658 5650 5642 5634 5627 5621 5614 5607 5600 5593 5586 5579 5573 5566 5560 5554 5548 5543 5539 5535 5531 5528 5524 5521 5519 5517 5517 5519 5523
5743 5738 5733 5727 5722 5716 5710 5703 5697 5689 5682 5674 5665 5657 5649 5641 5633 5626 5619 5612 5606 5599 5593 5586 5579 5573 5566 5559 5553 5548 5542 5537 5533 5530 5526 5523 5520 5516 5514 5512 5511 5512 5515